When you browse on this site, cookies collect data to enhance your experience and personalize the content and advertising you see.
Visit our Privacy Policy to learn more. By continuing to use the site, you agree to this use of cookies and data.

Hourly Weather Tucupita

Today, 22 September, Tuesday

Time Temperature Precipitation Wind Pressure Humidity
00:00 +26°C° 0 mm 1 mps 757 mmHg 98%
01:00 +26°C° 0 mm 1 mps 757 mmHg 98%
02:00 +26°C° 0 mm 1 mps 757 mmHg 98%
03:00 +25°C° 0 mm 1 mps 757 mmHg 98%
04:00 +25°C° 0 mm 1 mps 757 mmHg 98%
05:00 +25°C° 0 mm 1 mps 757 mmHg 99%
06:00 +26°C° 0 mm 1 mps 758 mmHg 94%
07:00 +28°C° 0 mm 1 mps 758 mmHg 90%
08:00 +29°C° 0 mm 1 mps 758 mmHg 86%
09:00 +31°C° 0 mm 1 mps 758 mmHg 76%
10:00 +33°C° 0 mm 1 mps 758 mmHg 65%
11:00 +36°C° 0 mm 2 mps 758 mmHg 55%
12:00 +36°C° 0.1 mm 2 mps 758 mmHg 53%
13:00 +37°C° 0.1 mm 2 mps 757 mmHg 51%
14:00 +37°C° 0.1 mm 2 mps 756 mmHg 50%
15:00 +36°C° 0 mm 2 mps 756 mmHg 55%
16:00 +35°C° 0 mm 2 mps 755 mmHg 61%
17:00 +34°C° 0 mm 2 mps 755 mmHg 66%
18:00 +31°C° 0 mm 2 mps 756 mmHg 73%
19:00 +30°C° 0 mm 2 mps 756 mmHg 79%
20:00 +28°C° 0 mm 2 mps 756 mmHg 85%
21:00 +27°C° 0 mm 1 mps 757 mmHg 88%
22:00 +27°C° 0 mm 1 mps 757 mmHg 91%
23:00 +26°C° 0 mm 1 mps 757 mmHg 93%

Tomorrow, 23 September, Wednesday

Time Temperature Precipitation Wind Pressure Humidity
00:00 +26°C° 0 mm 1 mps 757 mmHg 94%
01:00 +26°C° 0 mm 1 mps 757 mmHg 95%
02:00 +26°C° 0 mm 1 mps 757 mmHg 96%
03:00 +26°C° 0 mm 1 mps 757 mmHg 97%
04:00 +25°C° 0 mm 1 mps 757 mmHg 97%
05:00 +25°C° 0 mm 1 mps 757 mmHg 98%
06:00 +27°C° 0 mm 1 mps 758 mmHg 93%
07:00 +28°C° 0 mm 1 mps 758 mmHg 88%
08:00 +29°C° 0 mm 1 mps 759 mmHg 82%
09:00 +31°C° 0 mm 2 mps 759 mmHg 74%
10:00 +34°C° 0 mm 2 mps 759 mmHg 66%
11:00 +36°C° 0 mm 2 mps 759 mmHg 58%
12:00 +36°C° 0.5 mm 2 mps 758 mmHg 59%
13:00 +36°C° 0.5 mm 2 mps 757 mmHg 60%
14:00 +36°C° 0.5 mm 2 mps 756 mmHg 61%
15:00 +35°C° 0.2 mm 2 mps 756 mmHg 64%
16:00 +34°C° 0.2 mm 2 mps 756 mmHg 67%
17:00 +32°C° 0.2 mm 2 mps 756 mmHg 70%
18:00 +31°C° 0 mm 2 mps 756 mmHg 76%
19:00 +30°C° 0 mm 2 mps 757 mmHg 81%
20:00 +28°C° 0 mm 2 mps 758 mmHg 86%
21:00 +28°C° 0 mm 2 mps 758 mmHg 88%
22:00 +27°C° 0 mm 1 mps 758 mmHg 91%
23:00 +27°C° 0 mm 1 mps 758 mmHg 94%

Day after tomorrow, 24 September, Thursday

Time Temperature Precipitation Wind Pressure Humidity
00:00 +27°C° 0 mm 1 mps 758 mmHg 95%
01:00 +26°C° 0 mm 1 mps 758 mmHg 97%
02:00 +26°C° 0 mm 1 mps 757 mmHg 98%
03:00 +26°C° 0 mm 1 mps 757 mmHg 98%
04:00 +26°C° 0 mm 1 mps 758 mmHg 98%
05:00 +25°C° 0 mm 1 mps 758 mmHg 99%
06:00 +27°C° 0 mm 1 mps 758 mmHg 93%
07:00 +28°C° 0 mm 2 mps 759 mmHg 87%
08:00 +29°C° 0 mm 2 mps 759 mmHg 82%
09:00 +31°C° 0 mm 2 mps 759 mmHg 74%
10:00 +34°C° 0 mm 2 mps 759 mmHg 66%
11:00 +35°C° 0 mm 2 mps 759 mmHg 58%
12:00 +36°C° 0 mm 2 mps 759 mmHg 54%
13:00 +37°C° 0 mm 2 mps 758 mmHg 51%
14:00 +37°C° 0 mm 2 mps 757 mmHg 48%
15:00 +36°C° 0 mm 2 mps 757 mmHg 54%
16:00 +35°C° 0 mm 2 mps 757 mmHg 60%
17:00 +34°C° 0 mm 2 mps 757 mmHg 66%
18:00 +31°C° 0 mm 2 mps 757 mmHg 72%
19:00 +30°C° 0 mm 2 mps 758 mmHg 78%
20:00 +28°C° 0 mm 2 mps 758 mmHg 84%
21:00 +28°C° 0 mm 2 mps 759 mmHg 87%
22:00 +27°C° 0 mm 1 mps 759 mmHg 90%
23:00 +27°C° 0 mm 1 mps 759 mmHg 93%

25 September, Friday

Time Temperature Precipitation Wind Pressure Humidity
00:00 +26°C° 0 mm 1 mps 759 mmHg 95%
01:00 +26°C° 0 mm 1 mps 758 mmHg 96%
02:00 +26°C° 0 mm 1 mps 758 mmHg 97%
03:00 +26°C° 0 mm 1 mps 758 mmHg 98%
04:00 +25°C° 0 mm 1 mps 758 mmHg 98%
05:00 +25°C° 0 mm 1 mps 758 mmHg 98%
06:00 +27°C° 0 mm 1 mps 759 mmHg 93%
07:00 +28°C° 0 mm 1 mps 759 mmHg 88%
08:00 +29°C° 0 mm 1 mps 760 mmHg 82%
09:00 +31°C° 0.2 mm 1 mps 760 mmHg 75%
10:00 +32°C° 0.2 mm 2 mps 759 mmHg 68%
11:00 +35°C° 0.2 mm 2 mps 759 mmHg 61%
12:00 +35°C° 0.6 mm 2 mps 759 mmHg 61%
13:00 +35°C° 0.6 mm 3 mps 758 mmHg 61%
14:00 +35°C° 0.6 mm 3 mps 757 mmHg 61%
15:00 +34°C° 0 mm 2 mps 757 mmHg 64%
16:00 +32°C° 0 mm 2 mps 756 mmHg 67%
17:00 +31°C° 0 mm 2 mps 756 mmHg 70%
18:00 +30°C° 0 mm 2 mps 756 mmHg 76%
19:00 +29°C° 0 mm 2 mps 757 mmHg 82%
20:00 +27°C° 0 mm 2 mps 757 mmHg 87%
21:00 +27°C° 0 mm 1 mps 758 mmHg 90%
22:00 +26°C° 0 mm 1 mps 758 mmHg 92%
23:00 +26°C° 0 mm 1 mps 758 mmHg 95%

26 September, Saturday

Time Temperature Precipitation Wind Pressure Humidity
00:00 +26°C° 0 mm 1 mps 757 mmHg 95%
01:00 +26°C° 0 mm 1 mps 757 mmHg 95%
02:00 +26°C° 0 mm 1 mps 757 mmHg 96%
03:00 +23°C° 0.3 mm 0 mps 757 mmHg 96%
04:00 +23°C° 0.3 mm 0 mps 757 mmHg 97%
05:00 +23°C° 0.3 mm 0 mps 757 mmHg 97%
06:00 +24°C° 0.1 mm 0 mps 757 mmHg 93%
07:00 +27°C° 0.1 mm 1 mps 758 mmHg 89%
08:00 +28°C° 0.1 mm 1 mps 758 mmHg 85%
09:00 +30°C° 0.5 mm 1 mps 758 mmHg 81%
10:00 +31°C° 0.5 mm 1 mps 758 mmHg 77%
11:00 +32°C° 0.5 mm 2 mps 758 mmHg 73%
12:00 +32°C° 0.6 mm 2 mps 757 mmHg 72%
13:00 +32°C° 0.6 mm 2 mps 756 mmHg 70%
14:00 +34°C° 0.6 mm 2 mps 756 mmHg 68%
15:00 +32°C° 0.5 mm 2 mps 755 mmHg 72%
16:00 +31°C° 0.5 mm 1 mps 755 mmHg 76%
17:00 +30°C° 0.5 mm 1 mps 755 mmHg 80%
18:00 +29°C° 0 mm 1 mps 755 mmHg 84%
19:00 +28°C° 0 mm 1 mps 756 mmHg 88%
20:00 +27°C° 0 mm 1 mps 756 mmHg 91%
21:00 +27°C° 0 mm 1 mps 756 mmHg 93%
22:00 +26°C° 0 mm 1 mps 756 mmHg 94%
23:00 +26°C° 0 mm 1 mps 756 mmHg 95%

27 September, Sunday

Time Temperature Precipitation Wind Pressure Humidity
00:00 +26°C° 0 mm 1 mps 756 mmHg 96%
01:00 +24°C° 0 mm 0 mps 756 mmHg 97%
02:00 +23°C° 0 mm 0 mps 755 mmHg 97%
03:00 +23°C° 0.1 mm 0 mps 755 mmHg 97%
04:00 +23°C° 0.1 mm 0 mps 755 mmHg 98%
05:00 +23°C° 0.1 mm 0 mps 755 mmHg 98%
06:00 +24°C° 0 mm 0 mps 756 mmHg 94%
07:00 +28°C° 0 mm 1 mps 756 mmHg 89%
08:00 +29°C° 0 mm 1 mps 757 mmHg 84%
09:00 +30°C° 0.5 mm 1 mps 757 mmHg 78%
10:00 +32°C° 0.5 mm 1 mps 757 mmHg 71%
11:00 +34°C° 0.5 mm 2 mps 757 mmHg 65%
12:00 +34°C° 0.6 mm 2 mps 756 mmHg 65%
13:00 +34°C° 0.6 mm 2 mps 755 mmHg 65%
14:00 +35°C° 0.6 mm 2 mps 754 mmHg 65%
15:00 +32°C° 1 mm 2 mps 754 mmHg 74%
16:00 +31°C° 1 mm 1 mps 754 mmHg 82%
17:00 +29°C° 1 mm 1 mps 754 mmHg 91%
18:00 +28°C° 0.1 mm 1 mps 754 mmHg 93%
19:00 +27°C° 0.1 mm 1 mps 755 mmHg 95%
20:00 +27°C° 0.1 mm 1 mps 755 mmHg 97%
21:00 +26°C° 0 mm 1 mps 755 mmHg 97%
22:00 +26°C° 0 mm 1 mps 756 mmHg 97%
23:00 +26°C° 0 mm 1 mps 756 mmHg 97%
Show more